User: anonymous   Login
Location: Unspecified
(0.0000°N, 0.0000°E)
Time: 16:30:45
(UTC+00:00)
Language:

ELFIN A - Orbit

View from above orbital plane
View from above orbital plane
View from above satellite
View from above satellite

Ground track
Ground track

The orbit data is extracted from the following two-line orbital elements,

1 43617U 18070E   21333.88035550  .00018809  00000-0  34049-3 0  9992
2 43617  93.0262  16.4175 0014696  76.3417 283.9478 15.49485110180360
Epoch (UTC): 29 November 2021 21:07:42
Eccentricity: 0.0014696
inclination: 93.0262°
perigee height: 408 km
apogee height: 428 km
right ascension of ascending node: 16.4175°
argument of perigee: 76.3417°
revolutions per day: 15.49485110
mean anomaly at epoch: 283.9478°
orbit number at epoch: 18036

The dashed part of the orbit path shows where the satellite is in the earth's shadow,  

DLR